SCP
0 0 0 0 0 1 1 1 1 1 3 5 6 6 9 13 15 13 10 9 9 9 9 9 8 8 9 8 7 6 6 6 6 6 6 7 8 10 13 11 7 4 4 3
0 0 0 0 0 0 1 1 1 2 4 6 7 8 10 12 12 10 9 9 10 9 9 9 8 8 9 8 7 5 5 5 6 6 6 7 8 10 10 9 7 5 4 4
1 1 0 0 0 0 1 1 2 4 6 8 9 10 11 10 8 8 8 10 11 11 10 9 9 10 10 9 7 6 6 6 6 6 6 6 7 8 8 8 8 7 5 5
1 1 1 1 1 1 1 2 3 5 7 8 9 10 10 9 8 9 11 12 13 13 11 10 10 10 10 9 8 8 8 8 7 7 6 7 7 7 8 8 8 7 6 6
1 1 1 1 1 1 2 3 4 5 6 8 10 10 9 8 9 11 13 15 15 14 12 11 10 10 9 8 7 7 7 7 7 7 8 8 8 7 7 8 7 6 6 5
1 1 1 1 1 1 2 4 4 4 6 9 10 9 9 9 10 12 14 15 16 15 13 11 10 9 8 7 7 7 7 7 7 8 9 8 8 7 7 7 7 6 5 5
1 1 2 3 2 2 3 4 5 5 6 9 9 10 11 11 11 13 15 16 16 17 15 13 12 9 8 8 9 10 10 9 8 9 9 9 9 8 9 9 8 7 6 6
2 2 3 4 4 4 4 5 6 6 7 8 10 12 12 11 11 13 15 15 15 16 17 17 16 13 11 11 11 11 10 9 8 9 9 9 9 10 10 10 10 9 8 8
3 3 4 5 5 5 5 6 7 8 8 10 13 13 12 10 9 11 13 13 12 13 15 15 16 16 15 14 13 12 10 8 8 8 8 9 10 10 11 12 12 11 10 10
3 3 4 4 5 5 5 6 7 8 11 14 15 13 11 9 8 9 10 10 11 12 14 13 13 14 14 14 13 13 12 10 8 8 8 10 10 10 11 13 14 14 13 12
4 4 4 4 4 5 5 6 6 7 11 15 14 12 11 10 9 9 9 9 9 10 12 14 14 13 13 12 12 12 13 11 10 9 9 10 11 11 11 12 13 14 13 11
5 5 5 5 5 5 5 6 6 7 10 12 12 12 12 10 9 8 8 8 8 8 8 11 15 16 13 10 9 9 10 10 10 9 9 10 12 11 9 8 9 8 7 6
7 7 7 7 6 5 6 6 7 7 8 9 11 13 11 8 7 7 7 7 7 6 6 7 10 14 14 10 7 7 8 8 8 7 8 9 11 10 6 4 4 3 2 1
6 7 8 9 7 6 5 6 6 6 8 9 11 11 10 7 6 5 5 5 6 6 6 5 5 8 10 10 8 8 8 8 6 5 5 6 7 6 4 2 3 3 2 0
4 5 6 8 8 6 5 6 6 7 8 9 10 11 10 8 7 6 5 5 5 5 5 5 4 4 5 7 8 9 10 9 7 5 4 3 4 3 3 3 3 4 2 1
3 3 4 5 6 5 5 5 5 6 7 8 9 11 10 8 7 6 5 5 5 5 5 4 4 4 3 4 6 8 9 8 6 5 4 3 3 3 4 3 3 3 2 1
2 3 3 3 3 3 3 4 5 5 6 7 9 10 9 7 7 7 6 5 5 4 4 4 4 3 3 3 4 6 8 7 5 4 3 3 4 4 4 4 4 3 2 2
2 3 3 3 3 3 3 4 5 6 6 7 8 7 6 5 5 6 6 5 5 4 4 4 4 3 3 3 3 5 7 7 5 4 3 3 4 4 5 4 4 3 3 2
2 3 3 3 2 2 3 4 5 6 5 6 6 5 4 3 4 4 5 5 5 5 4 4 4 3 3 3 3 4 6 8 6 4 4 3 3 3 4 4 4 4 4 3
2 3 3 2 2 3 3 4 4 4 4 4 5 4 3 3 3 3 3 4 5 5 4 3 3 3 3 2 2 3 5 8 8 5 4 3 3 3 3 3 4 4 4 4
2 2 3 3 3 3 4 4 4 3 3 4 4 3 3 2 2 2 2 2 3 3 3 3 3 3 2 1 1 2 5 8 9 7 5 4 3 3 3 3 3 4 4 4
2 2 3 3 4 5 5 5 4 4 3 3 3 2 2 2 2 1 1 1 1 1 2 2 3 2 2 1 1 1 4 8 9 8 6 4 3 3 3 3 3 3 3 3
2 2 3 4 4 4 5 5 5 4 4 3 3 2 2 2 1 1 1 1 1 0 1 2 2 2 1 1 1 1 3 6 8 7 6 4 3 2 3 3 3 3 2 2
1 2 2 3 4 4 4 5 6 5 4 4 3 2 2 2 1 1 1 1 0 0 0 1 1 1 1 2 2 2 2 3 5 6 5 4 2 2 2 2 3 3 2 2
1 1 2 2 3 4 4 5 7 6 5 4 3 2 1 2 1 1 1 1 0 0 1 1 0 1 1 1 2 1 2 2 4 4 4 3 2 2 2 2 3 2 2 2
1 1 1 2 3 3 4 5 7 6 5 4 3 2 1 2 2 1 1 1 0 0 0 0 0 0 1 1 1 1 1 2 3 4 3 2 2 2 3 3 3 3 2 2
1 1 1 1 2 3 3 4 6 6 5 4 3 2 2 2 2 2 1 1 0 0 0 0 0 0 1 1 1 1 1 2 3 3 3 2 2 3 3 3 3 3 2 2
Wind_Speed
15 14 12 14 15 15 14 13 10 8 7 7 8 9 9 10 9 9 9 9 9 9 8 7 7 7 6 6 5 6 6 5 5 5 4 3 3 3 3 3 3 2 2 2
15 15 13 13 14 14 14 14 12 9 6 6 8 8 10 10 10 9 8 8 9 9 8 7 7 7 6 6 6 5 5 5 5 5 4 3 3 3 3 3 3 3 3 3
11 11 11 13 12 13 12 11 9 7 6 8 10 9 9 8 9 9 9 8 8 8 7 7 7 6 7 6 6 5 5 4 4 4 4 4 3 4 3 3 3 3 3 4
9 9 14 10 11 12 10 9 8 5 5 7 10 8 8 7 7 9 9 9 8 8 7 6 6 6 6 7 6 5 5 4 4 4 4 4 4 3 3 3 3 3 3 3
9 11 12 9 8 8 6 6 5 4 5 7 11 9 6 7 8 9 9 8 7 8 7 6 6 6 6 6 5 5 5 4 3 3 4 4 4 3 3 3 3 3 3 3
9 10 10 7 5 5 5 5 4 3 5 7 8 6 6 7 9 10 10 8 7 8 9 7 6 6 6 5 5 4 5 4 3 3 3 4 3 3 2 2 2 3 3 3
11 10 6 4 5 5 5 3 1 2 3 5 3 5 9 10 11 10 10 10 9 8 7 6 6 5 5 5 4 4 5 4 3 3 3 4 3 2 2 2 2 2 3 3
9 9 5 2 1 2 2 2 3 4 6 8 8 10 11 11 11 11 10 10 9 8 7 6 6 5 6 5 4 4 4 4 4 3 3 4 3 2 2 2 2 2 2 3
2 2 2 5 5 5 4 4 4 5 6 8 8 9 10 10 10 10 10 9 8 8 7 6 6 5 6 5 4 4 4 4 4 4 3 3 3 2 1 1 2 2 2 2
3 3 3 4 5 6 6 5 4 4 4 8 8 9 10 9 9 9 9 8 7 8 7 6 5 5 5 5 5 5 5 4 3 4 3 3 2 2 1 1 0 0 1 1
2 2 3 3 4 5 5 5 4 3 4 7 7 8 9 8 8 8 7 7 6 6 6 6 5 5 5 4 4 4 4 4 3 3 4 3 3 2 2 3 2 1 1 2
1 2 1 3 3 3 4 4 3 3 5 6 6 7 7 7 7 7 7 6 6 6 6 6 5 5 4 4 3 3 4 3 2 3 3 3 4 4 6 4 5 5 4 3
3 4 4 3 4 4 4 4 4 4 4 5 5 7 7 7 6 6 6 6 5 5 5 5 5 4 4 3 3 2 2 2 2 2 2 2 3 4 4 3 4 4 4 4
4 4 3 3 3 4 4 4 3 4 5 6 6 6 6 6 6 6 5 5 5 5 5 4 4 4 4 3 3 2 2 3 2 2 2 2 2 2 3 4 3 2 2 3
4 3 1 2 2 3 3 3 4 5 5 6 6 7 6 6 5 4 4 4 5 5 4 4 4 4 3 3 3 2 2 1 2 2 2 2 2 2 2 3 3 4 4 3
2 2 2 2 2 2 3 3 3 4 4 5 5 5 6 6 5 4 4 3 4 3 3 3 3 3 2 2 2 3 2 3 2 2 2 2 2 2 2 2 2 3 3 3
1 1 1 1 2 2 1 2 3 3 3 3 5 5 5 5 4 4 3 3 3 3 2 3 3 2 1 1 2 2 2 3 4 3 2 1 1 2 2 2 2 2 2 2
1 1 1 1 2 2 2 2 2 3 3 3 4 4 4 3 3 3 2 2 3 3 2 2 2 2 1 1 1 1 1 1 2 2 1 1 2 2 2 2 2 3 3 3
1 2 2 2 2 2 2 2 2 3 3 3 4 4 3 3 2 2 2 2 3 3 2 2 2 2 2 1 1 1 2 2 2 2 2 2 2 2 2 2 2 1 2 2
2 2 2 2 2 2 2 2 2 2 2 2 3 2 3 3 2 2 2 2 1 2 3 2 2 2 2 2 2 2 2 2 2 2 2 2 2 1 2 2 2 2 2 2
2 2 2 2 2 2 2 2 2 1 1 2 2 2 2 2 2 2 3 2 2 2 3 3 2 2 1 1 3 2 2 2 2 2 2 2 2 2 2 2 2 2 2 2
2 2 1 1 1 1 1 1 1 1 1 2 2 2 2 2 3 3 3 2 2 3 3 3 3 2 1 2 3 2 2 2 3 2 2 2 2 3 3 3 3 3 2 2
2 2 2 1 1 1 1 0 1 1 2 2 2 3 3 3 3 3 3 3 3 4 3 2 2 3 2 3 3 3 4 4 3 2 2 2 2 2 2 3 3 2 2 3
1 1 2 2 1 1 2 2 2 2 3 3 4 4 4 4 3 3 3 3 4 4 3 2 4 4 4 4 4 4 4 3 3 2 2 2 2 2 1 2 1 1 1 2
1 2 2 3 3 3 3 3 4 4 4 3 4 4 4 4 3 3 2 3 4 5 4 5 7 7 6 6 5 5 4 3 2 2 2 3 2 2 2 2 2 1 1 1
2 2 2 3 3 3 3 3 2 2 2 2 2 3 3 2 3 3 2 4 5 5 4 4 5 6 6 6 4 4 3 3 4 4 3 2 2 2 2 2 2 1 1 1
3 3 2 3 3 3 2 2 2 2 2 2 2 2 2 2 2 3 3 3 4 4 4 4 4 5 5 4 3 3 3 2 2 2 2 2 2 2 2 2 2 2 2 2
Wind_Direction
255 257 239 229 232 227 226 235 239 223 206 171 163 158 142 143 141 137 134 130 127 125 123 124 123 121 118 118 113 115 118 120 117 109 106 110 116 111 104 101 104 101 98 85
246 250 256 242 230 232 232 233 234 226 205 169 150 141 136 143 141 140 137 136 130 126 129 133 132 132 125 115 113 110 113 117 114 116 117 113 112 108 108 101 97 98 93 78
250 243 250 248 238 230 231 235 237 229 189 155 141 141 145 145 145 145 143 136 130 131 132 133 134 128 126 123 119 120 120 118 118 125 127 122 118 112 110 110 112 105 99 93
246 239 237 244 253 244 231 240 243 211 172 156 134 127 123 133 138 136 134 133 131 132 131 130 125 119 124 125 124 123 119 117 115 123 122 117 112 104 102 103 109 115 108 101
236 232 238 242 249 249 225 231 240 222 171 149 130 124 119 112 120 125 127 124 127 130 126 120 123 123 122 124 128 125 117 114 121 122 120 118 115 109 108 115 115 120 121 114
238 239 238 247 263 264 248 229 232 204 171 152 144 154 133 120 113 112 112 116 120 118 118 113 110 119 128 126 122 122 120 120 119 110 112 113 115 120 119 121 122 118 116 116
239 240 245 269 258 247 229 231 219 155 143 134 110 104 117 119 112 113 114 113 110 108 108 107 108 115 121 119 115 110 113 115 109 107 115 116 116 118 122 124 125 128 128 125
237 239 235 332 229 142 80 23 63 89 89 96 107 113 121 120 117 117 114 111 109 106 105 104 105 113 115 109 106 108 111 114 111 110 117 118 122 129 138 151 155 154 151 138
211 211 42 33 69 84 88 68 61 85 106 115 118 118 121 123 121 120 119 116 117 115 111 109 108 108 110 107 111 118 117 116 117 114 105 115 120 122 136 170 187 175 167 150
123 111 83 74 81 74 69 70 61 72 105 116 121 125 130 127 123 120 119 119 119 120 116 115 114 110 107 114 119 124 128 128 129 130 120 106 103 110 104 81 72 68 111 116
123 119 97 60 67 79 75 73 64 55 99 106 113 122 127 129 128 127 123 120 120 121 122 118 121 119 118 112 126 133 133 137 141 138 132 118 101 68 87 72 73 77 62 64
75 38 65 71 48 79 89 89 97 89 92 105 118 124 121 120 124 126 124 124 127 129 127 128 125 122 122 121 125 143 150 151 160 159 150 155 144 115 62 80 96 88 86 96
44 17 22 32 35 52 73 72 77 85 96 102 106 114 117 116 117 118 122 128 132 131 128 128 130 128 131 136 140 141 152 151 162 154 158 175 161 150 138 98 81 77 91 104
34 29 41 32 30 54 66 69 85 99 103 103 105 108 111 116 117 126 133 136 136 134 133 135 136 131 135 142 149 164 176 168 176 170 179 187 169 171 168 164 162 149 128 139
19 15 37 56 53 70 75 87 99 102 102 102 108 108 108 111 112 114 128 132 132 138 140 142 136 126 134 152 166 183 188 182 178 180 197 194 185 187 184 172 165 152 150 154
9 6 33 69 71 79 81 84 86 95 99 100 104 107 109 111 113 113 116 122 130 141 141 136 128 129 145 169 179 184 185 186 207 213 212 203 202 197 186 178 174 159 159 160
354 346 18 55 69 69 74 91 105 109 105 106 110 110 110 116 123 124 127 133 126 128 139 134 134 133 164 192 216 216 188 175 195 217 226 212 218 219 203 191 182 167 155 149
324 317 3 63 80 78 64 67 105 120 122 127 122 122 126 128 131 131 135 132 132 132 128 127 125 142 193 215 233 236 195 182 195 197 209 239 241 220 207 205 199 180 171 168
94 65 51 58 65 74 78 68 87 108 125 134 136 141 141 141 138 136 140 148 153 159 142 128 140 191 198 192 250 232 211 196 202 195 183 195 240 238 210 207 205 170 165 172
74 73 69 64 63 86 96 98 103 116 138 137 141 150 158 158 159 159 160 175 180 159 145 153 189 215 207 196 228 235 228 215 217 214 200 212 222 225 232 228 206 195 190 190
49 52 65 69 62 74 80 96 106 114 152 176 179 188 187 183 189 188 200 201 143 141 165 178 207 221 234 250 239 247 241 222 224 227 223 226 218 223 230 242 232 207 204 202
37 40 49 61 61 56 63 80 112 127 218 239 223 213 209 213 213 212 213 211 195 177 199 201 206 171 197 265 247 244 238 240 236 230 227 222 215 220 227 231 233 223 213 210
22 11 352 349 3 73 79 130 203 211 215 242 239 225 231 239 232 229 229 211 204 201 219 212 177 158 180 245 255 250 240 235 232 219 215 230 234 236 235 234 234 226 217 216
11 357 334 322 306 260 249 245 240 239 234 232 232 227 226 229 229 232 236 195 183 191 209 179 171 186 219 243 246 245 245 232 218 207 200 207 211 216 236 252 247 227 232 232
327 319 302 286 268 253 244 244 236 225 228 228 227 230 234 227 223 222 225 221 194 196 207 195 197 208 226 244 239 236 235 226 220 208 206 210 217 217 211 211 213 212 220 240
273 272 271 273 277 272 264 257 251 246 235 224 224 228 232 225 211 203 202 209 216 217 219 206 201 212 231 241 237 235 231 212 205 208 210 203 208 215 212 205 209 211 213 219
254 256 251 263 266 257 255 257 255 256 242 226 224 231 235 234 226 216 213 214 216 219 217 215 216 221 229 231 227 228 227 217 211 213 202 189 188 200 211 200 201 202 201 199